Weather History for Billings, MT

Change the Weather History Date:

Friday, March 30, 2012

  Actual Average Record
Temperature  
Mean Temperature 56 °F 42 °F  
Max Temperature 72 °F 53 °F 79 °F (1978)
Min Temperature 40 °F 31 °F -8 °F (1936)
Degree Days  
Heating Degree Days 9 24  
Month to date heating degree days 548 822  
Since 1 July heating degree days 5056 5787  
Cooling Degree Days 0 0  
Month to date cooling degree days 0 0  
Year to date cooling degree days 0 0  
Growing Degree Days 6 (Base 50)    
Moisture  
Dew Point 28 °F    
Average Humidity 37    
Maximum Humidity 53    
Minimum Humidity 20    
Precipitation  
Precipitation 0.00 in 0.04 in 0.75 in (2006)
Month to date precipitation 0.70 1.01  
Year to date precipitation 1.55 1.97  
Snow  
Snow 0.00 in 0.30 in 8.30 in (2007)
Month to date snowfall 5.9 9.8  
Since 1 July snowfall 34.7 44.3  
Snow Depth 0.00 in    
Sea Level Pressure  
Sea Level Pressure 29.62 in    
Wind  
Wind Speed 15 mph (WSW)    
Max Wind Speed 39 mph    
Max Gust Speed 47 mph    
Visibility 10 miles    
Events      
T = Trace of Precipitation, MM = Missing Value Source: NWS Daily Summary

Daily Weather History Graph

Daily Weather History Graph

Search for Another Location

Airport:

Trip Planner

Search our weather history database for the weather conditions in past years. The results will help you decide how hot, cold, wet, or windy it might be!

Date:

Astronomy

Mar. 30, 2012 Rise Set
Actual Time 6:56 AM MDT 7:40 PM MDT
Civil Twilight 6:26 AM MDT 8:10 PM MDT
Nautical Twilight 5:51 AM MDT 8:46 PM MDT
Astronomical Twilight 5:14 AM MDT 9:24 PM MDT
Moon 11:51 AM MDT (3/30) 2:33 AM MDT (3/30)
Length of Visible Light 13h 43m
Length of Day
12h 43m
Waxing Crescent, 49% of the Moon is Illuminated
Mar 30
Waxing Crescent
Mar 30
First Quarter
Apr 6
Full
Apr 13
Last Quarter
Apr 21
New

Hourly Weather History & Observations

Time (MDT) Temp. Windchill Dew Point Humidity Pressure Visibility Wind Dir Wind Speed Gust Speed Precip Events Conditions
12:53 AM 45.0 °F 41.8 °F 24.1 °F 44% 29.69 in 10.0 mi SW 5.8 mph - N/A   Clear
1:53 AM 45.0 °F 42.6 °F 24.1 °F 44% 29.69 in 10.0 mi SW 4.6 mph - N/A   Clear
2:53 AM 44.1 °F 40.1 °F 24.1 °F 45% 29.68 in 10.0 mi SW 6.9 mph - N/A   Clear
3:53 AM 43.0 °F 38.8 °F 24.1 °F 47% 29.69 in 10.0 mi WSW 6.9 mph - N/A   Clear
4:53 AM 41.0 °F 34.7 °F 24.1 °F 51% 29.67 in 10.0 mi SW 10.4 mph - N/A   Clear
5:53 AM 44.1 °F 39.5 °F 25.0 °F 47% 29.64 in 10.0 mi WSW 8.1 mph - N/A   Clear
6:53 AM 43.0 °F 37.7 °F 25.0 °F 49% 29.67 in 10.0 mi SW 9.2 mph - N/A   Scattered Clouds
7:53 AM 43.0 °F 36.8 °F 26.1 °F 51% 29.69 in 10.0 mi WSW 11.5 mph - N/A   Scattered Clouds
8:53 AM 51.1 °F - 28.0 °F 41% 29.67 in 10.0 mi WSW 13.8 mph - N/A   Scattered Clouds
9:53 AM 55.0 °F - 30.0 °F 38% 29.63 in 10.0 mi SSW 9.2 mph - N/A   Scattered Clouds
10:53 AM 64.0 °F - 28.0 °F 26% 29.57 in 10.0 mi SW 16.1 mph 25.3 mph N/A   Scattered Clouds
11:53 AM 69.1 °F - 28.0 °F 22% 29.57 in 10.0 mi SW 24.2 mph 36.8 mph N/A   Partly Cloudy
12:53 PM 69.1 °F - 27.0 °F 21% 29.59 in 10.0 mi WSW 25.3 mph 42.6 mph N/A   Partly Cloudy
1:53 PM 68.0 °F - 27.0 °F 21% 29.57 in 10.0 mi West 31.1 mph 42.6 mph N/A   Scattered Clouds
2:53 PM 68.0 °F - 28.0 °F 22% 29.54 in 10.0 mi WSW 27.6 mph 36.8 mph N/A   Mostly Cloudy
3:53 PM 70.0 °F - 28.9 °F 22% 29.56 in 10.0 mi WSW 18.4 mph 33.4 mph N/A   Scattered Clouds
4:53 PM 66.0 °F - 30.9 °F 27% 29.58 in 10.0 mi West 17.3 mph 25.3 mph N/A   Scattered Clouds
5:53 PM 66.9 °F - 30.0 °F 25% 29.57 in 10.0 mi SSW 10.4 mph - N/A   Scattered Clouds
6:53 PM 66.0 °F - 28.0 °F 24% 29.59 in 10.0 mi West 23.0 mph 31.1 mph N/A   Scattered Clouds
7:53 PM 62.1 °F - 30.0 °F 30% 29.59 in 10.0 mi West 23.0 mph - N/A   Scattered Clouds
8:53 PM 62.1 °F - 30.0 °F 30% 29.57 in 10.0 mi West 24.2 mph 39.1 mph N/A   Clear
9:53 PM 61.0 °F - 30.9 °F 32% 29.59 in 10.0 mi WSW 15.0 mph 23.0 mph N/A   Clear
10:53 PM 60.1 °F - 30.0 °F 32% 29.60 in 10.0 mi WSW 11.5 mph - N/A   Clear
11:53 PM 57.9 °F - 30.9 °F 36% 29.60 in 10.0 mi WSW 9.2 mph - N/A   Clear